Theta_e
346 347 345 345 340 335 334 331 328 329 329 330 331 333 337 338 339 339 338 336 334 331 331 335 340 343 343 342 342 342 341 341 337 332 331 335 338 338 340 340 341 341 340 341 342 341 341 341 341 341 341 341 340 339 337 337 337 336 337 337 337 337 337 338 338 338 337 336 336 335 335 335 334 332 331 331 331 332 330 331 332 332 332 331 328
347 346 344 344 341 336 334 332 328 329 330 330 331 332 336 339 339 338 338 337 335 332 335 340 343 343 342 342 342 341 341 340 336 333 332 331 333 337 340 339 340 340 339 341 341 340 340 340 340 340 340 340 340 338 336 337 337 337 337 336 336 336 336 337 337 336 336 334 334 334 334 333 333 332 331 330 330 329 328 330 331 331 332 329 326
347 346 345 344 341 337 334 332 329 329 329 330 330 331 334 338 340 339 339 337 337 336 339 342 342 342 342 342 341 340 340 339 338 336 333 329 332 336 338 338 339 340 340 340 340 340 339 339 339 339 339 339 339 337 336 336 336 336 335 334 335 336 336 336 334 335 335 333 334 334 334 333 333 332 332 331 329 328 329 330 330 330 330 328 326
348 346 345 345 342 338 334 332 329 329 329 330 328 328 331 335 338 340 339 339 340 340 341 341 341 341 341 341 340 340 338 336 335 333 330 330 335 337 338 338 338 338 339 339 339 339 339 339 339 339 339 339 338 337 336 335 334 334 333 334 334 334 334 334 334 333 334 335 335 334 334 334 333 332 332 332 331 331 330 330 330 330 330 328 326
348 346 344 345 343 338 335 332 329 329 329 330 328 325 326 329 332 336 339 339 340 340 340 341 341 341 340 339 337 335 331 331 331 332 332 334 336 338 340 339 339 338 337 336 337 338 338 339 339 339 338 339 338 336 336 334 333 332 334 334 333 332 333 333 333 332 332 333 333 333 333 333 333 333 332 332 331 331 331 331 330 330 330 328 326
348 345 344 345 344 340 336 332 329 329 329 331 329 324 323 324 324 327 332 335 337 338 339 339 339 336 332 330 328 328 329 332 334 336 336 336 335 338 340 339 340 339 337 334 335 337 337 337 338 338 339 338 337 336 335 333 332 332 333 332 332 332 331 330 330 330 331 331 332 333 333 333 333 332 332 332 331 330 331 331 331 330 330 329 327
347 345 345 344 345 341 335 333 329 329 330 330 329 326 324 323 321 320 322 327 332 335 335 333 330 327 326 327 329 332 334 337 338 338 337 336 336 336 337 337 338 338 337 336 336 337 336 335 336 337 338 337 335 334 334 332 331 330 330 331 331 330 328 328 329 330 332 332 333 333 333 333 333 332 332 332 331 331 331 331 331 330 330 329 327
346 345 345 343 345 342 337 333 329 329 331 331 330 328 326 325 324 321 320 322 326 329 327 325 326 330 333 336 337 338 339 339 339 339 338 338 337 337 336 335 337 338 339 339 336 335 336 337 336 336 338 336 333 333 333 332 331 331 332 332 331 330 329 329 330 331 332 333 332 333 333 334 333 333 333 332 332 332 331 331 330 330 329 328 327
346 345 345 344 345 343 339 333 330 330 331 332 332 330 329 327 326 324 321 320 321 322 324 328 333 335 336 338 340 340 340 339 339 339 339 339 339 339 338 336 335 337 339 339 337 335 336 337 337 337 337 335 332 333 333 333 333 334 335 334 333 333 331 329 329 331 332 333 332 333 333 334 334 333 333 332 331 330 330 330 329 329 329 328 327
346 344 344 343 344 343 339 333 329 329 331 333 334 333 331 330 329 328 325 322 322 323 329 335 336 335 335 337 339 339 340 339 340 340 340 339 340 340 339 337 332 334 338 338 338 337 334 334 337 337 337 335 332 333 332 332 333 334 335 334 335 335 334 331 328 331 333 332 333 334 333 333 333 332 332 331 330 330 330 329 330 330 330 329 326
345 344 344 343 344 343 338 333 330 329 331 334 335 335 333 333 332 331 330 328 329 331 333 336 335 335 335 335 336 336 337 338 340 340 340 339 339 339 339 336 332 334 336 335 335 335 334 334 337 338 336 336 334 334 334 333 334 334 333 334 336 336 336 333 331 332 333 332 333 334 332 331 332 332 331 331 331 331 330 330 330 330 329 328 326
345 345 344 344 344 343 337 332 331 329 331 334 336 335 335 335 334 334 332 332 333 334 333 334 335 335 335 335 334 333 334 338 341 341 340 339 339 337 337 336 332 333 335 333 332 332 334 335 336 337 336 336 336 335 334 334 334 334 333 332 334 335 335 335 334 333 332 333 333 333 332 332 332 332 332 332 331 331 331 330 329 329 329 328 326
346 345 344 344 344 342 337 332 330 330 332 335 336 335 335 335 335 336 336 336 335 334 333 334 334 334 334 334 334 334 336 339 341 340 339 339 338 336 334 334 332 334 334 333 333 331 333 334 335 335 336 335 335 333 333 333 333 334 333 332 332 333 333 334 335 333 332 333 333 333 332 333 333 332 332 331 331 332 332 330 329 329 329 329 327
346 344 345 345 344 343 337 332 330 330 333 335 334 334 335 334 335 336 337 338 337 335 334 333 333 333 332 333 335 337 338 339 339 339 338 338 338 335 333 333 333 334 334 334 334 332 331 332 333 334 335 334 333 332 332 333 333 333 332 331 332 333 333 333 334 334 332 333 333 332 332 333 332 332 332 331 332 332 331 330 329 330 329 328 326
345 344 345 344 344 343 337 332 330 330 332 332 332 333 334 335 335 336 336 336 337 337 335 333 332 332 333 335 337 338 338 338 338 337 336 336 335 334 333 333 334 334 333 333 333 332 331 331 333 334 334 333 332 332 332 332 332 331 331 333 334 334 335 335 335 334 333 333 333 332 332 332 332 332 332 331 331 331 331 330 329 329 328 328 326
344 344 344 344 344 343 339 333 329 330 332 332 333 334 334 334 335 335 335 335 337 338 337 335 334 335 336 337 337 338 337 335 335 334 333 332 332 332 333 334 335 334 332 332 332 331 331 330 331 333 334 332 332 331 331 330 329 331 332 333 334 335 335 335 334 334 333 333 333 332 332 332 332 333 332 331 331 331 330 330 329 328 327 328 326
344 344 344 344 344 343 341 336 330 329 332 333 335 336 334 334 335 334 333 335 337 338 338 338 338 338 338 337 337 336 334 334 332 332 332 331 330 331 332 334 335 333 331 332 332 329 329 329 328 330 331 331 330 329 328 328 329 331 333 333 334 335 335 334 333 334 332 331 332 332 332 331 332 333 332 331 331 330 330 330 329 328 327 326 325
343 344 344 343 344 343 342 337 330 329 332 334 336 336 335 335 335 333 334 336 339 339 339 339 339 337 336 335 334 334 334 333 333 332 331 330 329 330 330 333 333 331 330 331 330 328 329 329 328 327 328 328 328 327 327 327 330 332 333 333 334 334 334 333 332 332 331 330 331 332 332 332 332 332 332 331 330 330 330 330 329 327 327 326 326
343 344 344 343 344 343 342 338 330 329 332 335 338 337 336 336 334 335 337 338 339 339 338 337 336 334 334 334 335 335 335 334 334 333 332 331 330 330 329 330 330 329 329 329 328 328 328 327 328 327 327 327 327 326 327 328 330 332 333 333 333 334 334 333 333 331 330 329 331 332 331 331 332 333 332 331 330 330 330 330 329 328 328 327 327
343 342 342 342 342 342 342 339 331 329 331 334 339 338 337 336 335 337 338 339 338 337 335 334 334 334 335 335 336 335 335 334 334 334 332 332 331 329 327 327 330 331 328 327 327 328 327 327 327 327 327 327 327 327 327 329 330 332 332 333 333 334 333 334 333 331 331 330 330 331 330 330 333 333 332 331 330 330 329 329 328 328 328 327 326
342 342 341 341 342 341 341 339 333 332 333 336 339 338 337 336 336 338 339 337 336 334 333 333 334 335 335 335 335 335 335 335 335 334 332 332 332 330 327 327 332 332 329 327 327 328 327 328 327 326 327 326 327 327 328 329 330 332 333 333 332 333 333 333 333 331 332 330 330 331 328 329 333 332 332 331 331 330 328 329 328 328 328 327 326
342 342 341 341 341 340 340 339 336 336 337 338 338 338 337 337 338 339 338 336 334 333 333 334 335 336 335 335 335 335 335 336 335 334 333 332 332 331 329 330 332 333 331 330 327 328 328 328 327 326 326 327 327 327 327 328 329 331 332 333 332 333 333 333 333 331 332 331 330 330 327 328 332 332 331 331 330 329 328 329 329 328 329 327 326
341 341 341 341 340 340 340 340 339 339 339 339 339 338 338 338 339 339 337 336 334 334 335 335 336 335 335 333 334 335 335 336 335 334 333 332 332 331 331 331 332 333 332 331 329 328 328 328 328 328 327 327 328 327 327 327 327 331 332 332 332 333 333 333 332 332 332 331 330 329 327 328 331 333 332 331 330 329 328 329 328 329 329 328 326
339 339 340 341 340 339 339 340 340 340 339 339 338 337 338 338 339 338 336 336 336 334 333 334 334 333 332 331 332 333 334 335 335 334 333 333 333 332 333 334 333 332 332 332 332 331 330 329 328 328 328 329 329 328 328 327 326 329 333 332 332 332 333 333 333 333 332 331 330 328 327 326 330 333 331 331 330 329 329 328 328 328 328 327 327
337 338 340 339 338 338 339 339 339 340 339 338 338 336 337 338 338 338 337 337 336 332 331 332 331 331 331 332 332 333 334 335 336 336 335 334 334 335 336 334 332 331 332 332 333 333 333 332 330 329 329 329 330 328 328 328 327 328 331 333 331 332 332 332 332 332 332 332 331 329 327 325 329 332 332 331 330 329 329 328 328 327 327 327 326
337 339 338 338 338 339 339 339 338 338 338 337 337 337 337 337 339 338 337 337 336 330 330 331 330 331 332 333 333 333 334 335 335 336 336 334 334 335 335 332 331 332 332 332 333 333 333 332 331 331 330 330 330 328 327 328 328 327 330 333 332 332 332 331 332 332 332 332 331 329 327 326 327 331 332 331 330 329 329 328 327 327 327 327 327
338 338 337 337 337 338 338 338 339 337 337 337 336 337 337 338 339 338 336 335 334 329 329 330 330 331 332 333 334 335 335 335 335 335 336 335 333 333 331 331 332 332 332 333 333 332 332 331 331 331 330 330 330 329 328 327 328 328 329 332 333 333 332 332 332 332 332 332 331 329 327 325 325 329 332 331 330 330 329 328 327 327 326 326 327
335 337 337 337 336 338 337 335 337 337 337 337 336 336 336 337 337 336 335 333 331 329 329 330 331 332 333 333 333 334 335 335 335 335 336 335 334 331 331 332 333 332 331 332 333 332 332 331 330 330 330 331 330 329 329 328 327 328 329 331 332 333 333 333 332 332 332 331 331 330 327 325 324 327 330 331 330 329 329 328 327 327 326 326 327
333 335 336 336 336 336 333 329 333 337 336 336 337 336 336 336 336 335 334 333 330 329 330 331 331 332 332 332 332 332 333 334 335 335 335 335 333 331 331 332 333 332 331 331 331 331 331 330 329 330 331 330 330 328 329 329 328 328 328 329 330 331 332 332 332 332 331 331 331 330 327 325 324 325 327 329 330 329 329 329 328 327 326 326 326
332 334 335 336 334 332 330 327 333 337 336 336 336 336 336 336 335 335 335 334 332 330 332 332 333 333 333 332 332 332 332 333 334 333 334 334 333 332 332 332 332 331 331 330 329 329 330 330 331 332 331 331 328 326 328 330 329 329 328 328 328 329 331 332 332 331 331 330 330 329 327 324 324 325 326 327 329 329 329 329 328 327 327 325 325
333 332 333 335 333 330 328 330 335 336 335 335 335 336 335 335 335 334 335 334 331 331 334 334 333 333 333 333 333 333 333 333 334 334 334 334 334 334 333 333 333 332 331 330 328 329 330 331 333 332 331 331 326 323 328 330 330 330 329 328 328 328 329 332 332 331 331 331 330 329 327 325 324 325 326 326 328 330 329 329 328 328 327 326 326
332 331 332 332 330 329 330 333 336 335 334 334 334 335 334 334 335 334 334 333 331 332 334 334 334 334 334 334 334 334 334 334 334 335 334 334 334 333 333 333 333 332 332 331 329 330 330 331 332 331 330 330 323 322 328 330 329 330 329 329 329 328 329 331 331 331 332 331 330 329 327 325 325 325 326 326 327 330 329 328 328 328 328 327 326
333 332 331 330 330 331 332 335 335 332 332 333 333 333 334 334 334 334 334 333 332 333 334 334 335 335 335 334 335 335 335 334 334 334 334 334 334 333 333 334 333 333 332 331 330 331 331 332 333 332 331 330 327 327 330 330 329 329 328 329 328 329 329 329 330 329 331 331 331 330 328 326 326 326 326 326 326 328 329 328 328 328 327 327 327
334 334 332 331 333 332 332 335 334 331 331 332 334 333 333 334 334 334 334 333 333 334 335 335 335 335 335 335 335 335 334 335 334 334 334 334 333 333 333 334 333 332 332 332 332 332 333 333 333 333 332 331 330 330 330 330 330 329 328 328 329 329 329 328 328 328 329 330 331 330 329 327 328 328 328 327 326 327 328 329 329 328 327 327 326
335 336 334 334 335 332 332 335 335 334 334 334 334 334 334 334 334 334 334 335 336 336 336 335 335 335 335 335 334 334 334 334 334 334 334 333 333 333 333 333 333 333 333 332 333 332 333 333 333 333 332 331 330 330 329 330 330 329 328 328 328 329 329 328 328 328 328 329 330 330 330 329 329 329 328 329 328 326 327 328 329 328 328 327 325
335 335 336 336 337 335 336 337 336 336 337 337 336 336 337 336 336 335 336 337 337 335 335 334 334 334 335 335 334 334 334 333 333 333 333 333 333 332 333 333 332 333 333 333 333 333 333 333 332 332 332 332 331 331 330 330 329 327 327 327 328 328 329 329 328 328 328 328 329 329 330 330 329 328 327 329 329 328 326 327 328 328 328 328 325
336 335 337 338 339 339 339 338 337 338 338 338 338 338 338 337 337 337 337 337 335 334 333 333 333 334 334 334 333 333 333 333 333 332 333 333 332 332 332 332 333 333 332 332 332 333 333 333 332 332 332 332 331 331 329 329 328 327 326 327 327 328 328 328 327 327 327 327 328 329 330 330 330 329 328 328 329 329 328 327 327 328 328 328 327
336 336 337 339 340 340 340 340 340 340 339 339 339 338 338 337 337 336 335 334 332 332 332 332 333 333 334 333 332 332 332 332 332 332 332 332 332 332 332 332 332 332 332 332 332 332 332 332 332 332 331 331 330 330 329 328 328 328 327 327 327 327 327 327 327 327 327 327 328 329 330 330 330 329 329 329 329 330 330 329 328 329 329 328 328
337 338 339 340 341 340 341 341 340 340 340 339 339 338 337 337 336 334 332 331 331 332 332 332 332 333 332 331 331 330 331 331 331 331 331 331 331 331 332 331 331 331 331 331 332 332 332 331 332 332 331 330 329 329 329 328 328 328 327 327 327 327 327 327 327 327 328 328 328 328 329 330 330 329 329 330 330 331 331 331 330 330 331 330 329
337 339 340 340 341 341 341 341 340 340 340 340 338 337 336 335 333 332 331 331 331 332 331 331 331 331 329 328 328 328 328 329 329 330 330 331 331 331 331 331 331 331 330 330 330 330 331 331 331 332 330 329 328 328 328 327 328 328 329 329 328 328 328 327 328 329 328 328 328 327 328 328 328 329 330 330 330 330 329 328 328 328 329 329 329
334 336 339 339 340 341 342 341 340 340 340 339 338 336 335 333 330 331 331 331 330 329 328 328 329 328 327 326 326 326 326 327 327 327 328 329 330 330 330 330 330 329 329 329 329 329 330 331 331 331 329 328 329 328 327 327 327 328 329 329 329 328 328 328 328 328 328 328 328 328 327 327 328 329 330 330 329 329 329 327 326 327 326 327 327
332 333 336 337 338 341 341 340 340 340 340 338 337 335 333 330 329 329 330 329 328 328 326 326 326 325 325 324 324 324 325 326 325 324 326 327 328 329 329 329 329 329 329 329 329 329 329 330 331 330 329 328 328 329 328 328 328 329 329 329 329 328 328 328 327 327 327 328 329 329 328 328 328 328 329 330 329 328 328 327 326 326 326 327 328
331 331 332 334 337 340 340 340 339 339 339 337 336 335 332 329 327 328 327 327 327 327 326 325 324 324 323 322 321 322 324 325 324 323 324 325 326 327 327 328 328 328 329 329 328 328 328 329 330 330 329 327 328 329 328 328 328 328 329 329 329 328 328 329 328 327 328 328 329 329 329 329 329 328 328 328 327 327 327 327 326 327 327 329 329
330 330 330 332 335 338 339 339 339 339 338 337 336 334 331 328 327 327 326 326 327 328 326 325 324 323 322 320 320 321 322 323 324 322 322 323 324 325 326 327 328 328 329 329 328 329 329 329 329 329 329 328 328 328 328 327 327 327 329 328 328 328 328 330 330 329 329 330 329 329 329 329 329 328 327 327 327 327 327 327 327 326 327 328 328
330 330 329 331 334 336 336 336 338 340 338 336 336 332 330 329 328 328 328 327 327 327 326 324 322 321 320 319 319 320 320 322 323 322 322 322 322 324 324 325 327 328 328 328 328 328 329 329 329 328 328 328 329 328 327 326 326 327 328 328 328 328 328 329 331 330 328 329 329 328 328 328 328 329 328 327 327 326 325 326 326 326 325 326 327
331 330 329 330 332 332 330 327 329 335 337 337 334 331 329 328 328 328 327 327 327 326 325 323 321 320 320 319 319 319 319 320 321 321 321 322 322 323 323 324 325 326 326 327 327 327 327 327 327 327 328 328 328 329 327 326 326 326 326 327 328 329 329 329 329 330 328 326 325 325 325 325 326 326 326 327 328 327 326 326 326 326 326 326 326
330 329 328 329 330 330 330 328 327 331 334 335 333 330 328 327 325 324 324 324 325 324 323 322 321 320 319 319 319 319 319 319 320 321 322 321 322 322 323 323 324 324 325 326 327 327 327 327 326 327 327 327 328 328 328 326 326 327 326 327 327 328 328 328 329 330 328 324 321 320 320 321 322 322 323 325 327 327 327 328 329 328 328 327 328
329 328 328 329 329 330 331 331 330 332 330 330 331 329 327 326 323 321 321 322 322 322 322 321 320 320 319 319 319 319 319 318 319 321 322 321 321 322 322 323 323 323 323 323 324 325 326 327 327 327 327 327 327 328 328 327 327 328 327 327 327 326 326 326 328 329 329 324 320 318 317 316 318 319 321 322 324 325 325 326 327 328 328 328 328
329 329 329 329 329 330 332 330 329 332 329 328 329 328 326 324 321 321 322 322 322 322 321 321 320 319 319 319 319 318 318 318 319 321 321 321 321 321 322 322 322 322 322 322 322 322 325 327 327 327 328 328 328 328 328 327 328 328 328 327 326 325 325 324 325 328 328 325 321 319 317 315 315 315 316 318 319 321 324 325 325 325 326 328 328
329 329 329 329 328 329 331 331 331 331 330 328 327 326 325 323 320 320 321 322 321 320 320 320 320 319 319 319 318 318 317 318 319 320 320 320 320 321 322 322 322 321 321 320 319 320 323 325 326 326 326 326 326 327 327 327 327 327 327 327 324 324 325 325 325 325 326 325 322 319 318 316 315 313 313 313 314 315 317 321 321 320 320 323 324
329 329 329 328 329 330 330 329 329 329 328 327 325 325 324 322 320 320 321 321 320 319 319 319 319 319 319 318 317 317 317 318 319 319 319 318 318 320 321 321 321 320 319 318 318 321 322 321 322 321 321 321 322 322 323 325 326 326 326 326 325 324 325 326 326 325 325 324 320 317 316 315 314 313 312 312 311 311 311 312 313 312 313 314 315
Wind_Speed
21 21 22 25 25 28 25 26 26 25 25 25 26 26 26 26 28 28 29 29 28 29 31 30 27 24 24 24 24 23 22 21 20 19 19 18 18 19 19 18 18 17 15 15 15 14 13 13 12 12 12 12 12 12 13 16 16 16 15 15 15 16 16 15 14 13 13 14 14 13 14 14 14 14 14 14 14 13 14 16 16 15 15 13 13
23 23 24 25 25 28 26 25 25 26 26 26 27 27 27 26 28 29 28 29 29 30 30 27 24 23 23 23 23 22 21 20 19 18 17 18 18 19 20 19 19 17 16 16 15 14 13 13 12 12 12 12 12 12 14 16 15 15 14 14 15 17 17 16 14 13 12 13 14 14 14 14 14 14 14 14 13 13 15 16 15 14 14 14 15
24 24 24 25 26 27 26 25 26 27 27 27 27 28 28 27 27 28 29 29 29 29 27 24 23 23 22 22 22 21 20 19 18 17 17 17 18 18 19 19 18 18 17 16 15 15 14 13 13 13 13 12 12 13 13 14 13 14 14 14 15 16 16 15 13 13 13 14 15 14 14 14 14 14 14 13 13 14 15 15 15 15 14 14 16
23 23 23 25 25 27 26 26 26 27 27 27 27 28 28 28 27 27 28 29 28 26 24 23 22 23 22 22 21 21 20 19 18 18 18 18 19 18 18 17 17 17 17 16 15 14 14 13 13 13 13 12 12 12 12 13 13 15 15 13 13 14 15 15 13 14 14 15 16 14 13 13 13 13 14 14 14 14 15 15 15 15 14 15 16
23 23 24 25 25 27 27 27 27 26 27 27 27 28 28 28 27 26 26 27 26 25 23 22 22 22 22 21 20 20 20 19 19 18 19 19 19 18 17 16 15 16 16 15 14 14 13 13 13 13 13 12 12 12 12 13 14 16 14 13 13 13 14 14 13 13 14 15 16 14 12 13 13 13 13 14 14 14 14 14 14 15 14 15 16
24 23 24 24 24 26 27 27 27 26 27 27 27 27 27 27 26 25 25 25 24 23 23 22 21 22 22 21 20 20 19 19 18 17 18 19 19 18 18 16 15 15 15 14 14 14 13 13 13 13 12 12 12 12 12 13 16 15 14 14 13 13 13 13 13 14 15 15 15 13 12 12 12 12 12 13 13 14 13 13 14 14 14 14 16
23 23 22 22 22 26 28 27 27 27 27 27 27 27 27 26 25 25 24 24 24 24 24 23 23 23 22 20 19 18 17 17 17 18 18 19 19 19 18 17 16 15 14 14 15 15 14 13 13 13 12 12 12 13 13 14 15 15 15 14 13 13 13 14 14 15 15 13 12 12 11 11 11 12 12 12 12 13 12 13 14 14 14 13 15
21 22 21 20 21 25 27 27 28 28 28 28 27 27 26 25 25 25 24 24 25 25 25 24 23 22 20 19 18 17 17 17 17 18 19 19 19 19 18 17 16 14 14 15 16 15 14 13 12 12 12 12 12 14 14 14 15 15 14 13 13 13 13 13 13 14 14 11 10 11 11 10 11 12 11 11 12 12 13 13 14 14 13 13 14
20 20 19 19 20 25 26 27 28 27 27 28 27 27 26 25 25 24 24 24 25 25 24 22 21 20 19 18 17 17 17 17 17 17 17 18 18 17 17 16 14 13 14 15 16 15 14 13 12 12 12 12 13 14 14 13 13 14 12 11 12 12 11 11 12 13 11 10 10 10 10 11 11 11 11 11 11 12 12 12 13 13 13 13 14
19 19 19 19 21 25 26 27 28 28 27 27 27 27 26 25 24 24 23 23 23 23 22 21 19 19 18 17 16 16 16 16 16 16 17 17 17 17 16 15 13 13 14 15 15 14 13 13 13 12 12 12 14 14 12 11 11 12 11 9 9 9 9 9 11 11 9 9 9 9 10 10 10 11 10 11 11 11 12 12 12 12 12 12 14
19 19 19 20 22 25 26 26 27 28 28 27 26 26 26 25 24 23 22 22 22 21 21 20 20 19 17 17 16 15 14 15 15 15 16 16 17 16 15 14 13 13 14 14 13 13 13 13 13 13 13 13 14 13 11 10 9 9 8 6 6 7 7 7 9 8 8 8 8 8 8 9 10 10 10 11 11 11 13 12 12 12 12 12 13
18 19 20 21 22 24 26 26 26 27 27 27 26 25 25 24 23 22 22 21 21 20 21 20 19 18 17 16 15 14 13 13 13 13 15 15 16 14 13 13 13 14 14 13 12 12 12 12 12 13 13 13 13 12 11 9 8 7 6 6 5 4 4 5 7 7 8 7 7 8 8 9 10 11 11 11 11 11 12 11 11 12 12 11 12
19 20 21 22 21 24 26 26 26 25 26 25 24 24 24 24 23 22 21 21 20 20 20 20 19 17 17 15 14 13 13 13 13 13 14 15 14 12 12 11 12 13 13 13 11 11 11 11 11 11 11 12 12 11 10 8 7 7 6 6 5 3 3 4 5 6 7 7 7 8 8 9 9 11 10 10 11 11 10 10 11 11 11 11 10
20 21 22 22 21 23 25 26 26 25 24 23 23 22 22 22 22 21 20 20 20 20 20 19 18 17 16 15 14 13 13 13 13 13 13 12 12 11 11 10 11 12 12 11 10 10 10 11 11 11 10 10 10 9 9 8 7 6 5 5 5 4 4 4 5 6 7 7 7 8 8 8 9 10 9 9 11 10 9 10 11 10 10 11 9
21 22 21 21 21 22 24 25 25 25 24 22 22 21 20 21 21 20 19 19 20 20 20 19 18 17 16 14 14 13 13 13 12 12 11 11 10 11 10 10 10 11 11 9 9 9 10 11 12 11 11 11 10 9 8 7 6 5 4 4 5 6 6 5 6 7 7 7 7 8 7 8 9 10 9 9 10 10 10 10 10 9 9 10 10
21 22 21 21 21 20 21 23 24 24 23 22 21 20 19 19 19 18 18 19 19 19 19 19 18 17 16 14 14 13 13 12 12 11 11 10 10 11 11 10 10 10 10 8 9 9 10 11 11 11 11 12 11 9 7 6 5 5 3 3 5 6 7 7 7 7 7 7 7 7 7 8 10 10 9 9 9 9 9 9 9 9 9 10 9
20 21 20 20 20 19 19 20 23 23 22 21 20 19 18 17 17 17 17 18 18 18 18 18 17 16 15 14 13 13 12 12 11 11 10 10 10 11 11 11 10 9 9 9 9 10 10 9 9 9 10 11 11 10 8 7 7 6 4 3 4 6 8 7 7 7 6 7 7 7 7 7 10 9 9 9 9 9 9 9 8 8 9 9 8
19 20 20 20 18 19 19 19 22 23 21 20 18 17 17 16 15 16 17 18 18 18 18 18 17 15 14 13 13 12 11 11 11 10 10 9 9 10 10 11 10 10 10 10 10 12 11 9 8 8 9 9 10 10 9 8 8 7 5 4 5 7 8 7 7 6 6 6 6 7 7 8 10 9 8 9 9 9 9 8 7 8 9 9 9
19 19 19 19 17 17 18 19 23 24 22 19 17 16 15 15 15 16 17 18 18 17 17 17 15 14 13 13 12 11 10 10 10 9 9 8 8 9 10 10 10 10 11 11 12 12 12 10 9 8 8 9 9 9 8 8 7 7 6 5 6 8 8 7 6 5 5 6 6 6 6 9 10 8 8 8 8 8 8 8 7 8 8 9 9
18 19 18 17 16 17 17 18 22 24 21 18 15 14 14 14 14 15 16 17 17 16 16 15 14 13 13 12 12 11 9 9 9 8 8 8 8 8 9 10 10 10 11 11 12 12 11 11 10 10 9 9 9 8 8 7 7 7 6 5 6 9 9 7 6 5 4 4 5 6 6 9 9 7 7 7 7 7 8 8 7 8 8 7 7
15 16 16 16 15 16 16 16 20 20 18 15 14 14 13 14 14 15 15 15 15 14 14 14 14 13 12 12 11 10 9 8 8 8 8 7 7 8 8 9 9 9 10 10 11 11 10 9 9 9 9 9 8 8 8 7 6 6 6 6 6 9 10 8 6 5 4 4 4 5 6 8 8 6 7 7 7 7 8 8 7 7 7 7 6
12 12 14 15 15 15 15 15 17 17 17 15 14 14 14 14 14 14 14 14 14 14 13 13 13 13 12 11 10 9 9 8 8 8 8 8 8 8 8 9 9 8 8 9 9 9 8 7 7 8 8 8 7 8 7 6 6 6 5 6 6 9 11 9 6 4 3 3 4 4 5 7 6 6 6 7 8 7 7 7 7 7 6 5 4
11 12 13 13 14 14 14 15 16 17 16 15 15 14 14 15 14 14 14 13 13 13 12 12 12 11 11 10 9 8 8 8 7 7 7 7 7 8 8 8 8 7 7 7 7 7 7 6 7 7 7 7 6 6 6 6 6 7 6 6 6 9 11 9 6 4 3 2 2 2 3 5 6 6 6 6 7 7 7 6 6 7 6 4 3
12 13 13 12 13 13 14 15 15 17 17 16 16 15 15 15 14 14 14 12 12 13 13 12 12 11 11 10 9 9 9 8 7 7 7 7 7 7 8 7 7 7 8 7 6 6 6 6 6 7 7 6 5 5 5 5 6 7 7 7 6 8 10 9 6 5 3 2 2 2 2 4 7 6 5 6 6 6 7 5 6 6 5 4 3
15 15 14 13 13 14 13 13 13 14 16 17 17 17 16 15 15 13 12 11 11 13 13 12 12 11 10 10 9 10 9 8 8 7 7 7 7 7 7 6 7 8 8 7 6 6 5 5 6 5 5 5 4 4 4 4 5 6 7 7 7 8 9 9 8 6 4 3 3 2 2 3 6 6 5 6 5 5 6 5 5 5 5 4 3
17 17 17 16 15 13 12 12 12 12 13 14 15 15 15 15 14 12 11 10 10 12 12 11 11 9 9 9 8 9 9 8 7 7 7 7 7 6 6 7 9 9 8 7 6 6 6 5 5 4 4 4 3 2 3 3 4 5 6 6 7 8 9 9 8 6 5 4 4 3 2 2 5 5 5 6 5 5 6 5 5 5 4 4 4
17 17 18 17 15 12 11 10 9 12 12 12 13 13 13 14 13 12 10 9 10 11 11 11 10 8 8 8 7 7 6 6 6 7 6 7 7 7 7 10 10 9 9 7 6 5 5 5 4 4 3 3 2 1 2 3 3 4 6 7 7 7 8 8 8 7 5 4 5 4 2 2 4 5 5 6 5 5 6 5 5 4 4 3 4
18 16 15 15 15 12 11 10 8 10 12 11 11 10 11 12 12 11 9 9 10 11 11 10 9 8 7 7 7 6 5 5 5 6 6 7 8 7 9 10 10 10 10 8 6 5 5 5 4 3 2 2 2 2 2 2 3 4 5 6 7 7 7 7 7 7 6 5 5 5 3 2 3 5 6 6 5 5 6 5 5 5 4 4 4
18 17 15 16 17 15 15 17 12 10 11 10 10 9 10 11 11 10 9 9 10 11 10 10 9 8 7 7 7 7 6 6 5 5 6 6 7 8 8 10 11 11 11 9 7 6 6 6 5 4 3 4 4 4 4 3 3 4 5 6 6 7 7 7 6 7 7 5 5 5 4 3 3 4 5 6 6 5 6 5 5 5 4 4 5
17 19 19 19 19 17 17 18 15 11 11 11 9 8 9 10 10 9 8 8 9 10 9 9 8 8 7 7 8 8 7 6 5 4 5 6 6 7 8 10 11 11 11 10 8 7 7 7 6 5 5 6 6 7 6 3 3 3 5 6 7 7 8 8 6 6 6 6 5 5 4 3 3 3 3 5 6 5 6 6 5 5 5 5 5
16 22 23 21 18 16 15 15 14 12 11 10 8 8 7 9 9 8 8 7 9 10 9 8 8 7 7 7 8 8 8 7 6 5 5 5 6 7 8 9 9 10 11 10 9 8 7 6 5 5 5 5 6 7 5 3 2 2 4 7 7 6 7 9 8 6 6 6 5 4 5 4 3 3 3 4 6 6 5 5 5 5 5 5 5
22 25 25 22 18 15 15 15 13 11 10 9 8 8 8 9 9 8 7 7 8 8 8 8 7 6 7 7 8 7 7 7 7 6 5 5 6 7 8 7 7 9 9 9 9 8 8 7 6 5 4 4 7 8 6 3 2 2 4 6 7 6 6 9 8 7 7 6 5 4 5 5 4 3 2 2 5 6 5 5 5 5 5 5 5
26 27 25 22 19 17 16 15 14 13 11 10 9 9 8 8 9 8 7 6 6 7 7 7 7 7 6 6 6 6 6 6 7 7 5 5 6 6 7 7 7 8 8 9 9 8 8 7 6 4 3 4 6 7 5 4 3 2 4 6 7 6 5 7 8 7 7 6 5 4 5 5 4 3 3 2 4 6 5 4 4 5 5 5 5
23 23 25 23 19 18 17 15 15 14 12 11 10 9 8 8 8 8 7 6 6 6 6 6 6 5 4 4 5 4 5 5 7 7 5 5 5 6 6 7 8 8 8 9 9 8 6 5 4 3 3 4 6 7 5 5 3 2 4 5 7 6 4 5 6 6 6 6 5 5 5 4 4 4 3 3 3 4 5 4 3 3 4 5 6
17 19 22 21 19 19 18 14 13 13 12 11 10 9 8 8 8 8 7 6 5 5 4 3 4 4 4 3 3 3 4 5 6 6 5 5 5 5 5 6 7 7 7 7 7 6 5 4 3 2 2 3 6 6 6 6 4 3 3 5 6 6 4 5 5 5 5 5 5 5 6 5 5 5 4 3 3 4 4 4 3 2 2 3 5
15 19 20 18 18 18 17 14 14 14 12 11 10 10 9 9 9 8 6 5 5 4 3 3 3 4 3 3 3 3 4 5 5 5 4 5 5 4 4 4 5 6 6 6 5 5 4 3 2 2 2 3 6 6 6 6 5 4 4 5 5 5 5 5 6 5 5 5 6 6 6 6 6 6 5 4 4 3 3 4 4 3 2 2 3
16 19 19 17 17 17 16 15 15 14 12 11 10 10 10 10 9 7 6 6 6 5 4 4 3 3 2 1 2 4 5 5 4 4 3 4 5 4 4 5 5 5 6 6 5 5 4 3 2 2 3 5 7 7 6 6 4 4 4 5 5 5 6 6 7 7 6 6 7 8 7 7 7 7 6 5 5 4 4 3 4 3 3 2 1
18 19 19 18 17 17 16 16 15 14 13 11 10 10 11 10 9 8 8 8 7 6 6 6 4 3 3 2 2 2 3 3 2 2 2 3 4 5 5 6 5 5 4 4 4 4 5 4 3 4 6 7 7 6 6 6 5 4 4 5 5 5 6 6 6 6 6 7 8 9 10 9 8 8 8 7 6 4 3 3 3 4 4 3 2
20 20 20 18 17 17 16 16 15 14 13 11 11 12 11 10 10 10 10 10 8 8 8 7 6 4 4 4 4 3 2 2 1 1 2 2 3 4 5 5 5 5 4 3 2 3 4 4 4 6 7 6 5 5 4 4 4 4 5 5 5 6 5 5 4 4 5 6 7 8 9 9 9 9 8 7 5 4 4 3 3 3 4 5 5
20 21 21 18 16 17 15 14 15 14 14 13 14 14 11 11 11 12 12 12 9 9 9 7 7 6 6 5 5 5 4 4 3 2 1 2 2 3 4 4 5 5 4 2 1 3 4 4 5 6 5 3 4 6 6 6 4 4 5 5 5 6 6 4 1 1 1 2 3 5 6 7 7 7 5 6 8 6 5 6 5 5 6 8 7
18 20 21 18 15 16 15 14 15 15 16 17 16 13 12 13 14 14 15 14 11 10 10 9 8 7 7 6 6 6 5 5 5 4 3 1 1 2 3 3 3 3 2 1 1 2 4 6 5 4 4 4 5 6 8 9 8 6 5 4 4 5 6 4 2 1 1 1 1 1 2 4 4 3 1 3 5 4 5 7 7 6 6 9 11
16 18 20 19 16 15 14 14 17 17 17 18 16 14 15 16 16 16 17 16 13 11 11 10 9 8 7 6 5 5 5 5 5 5 4 3 1 0 1 1 1 1 1 1 2 2 3 5 5 4 4 6 5 5 8 9 9 7 6 4 3 4 5 4 4 4 3 3 2 1 1 1 2 1 0 1 3 4 7 8 7 5 5 8 10
14 16 17 18 16 13 13 15 18 19 19 18 16 16 17 16 15 16 17 16 14 11 11 10 9 7 6 5 4 4 4 4 4 5 4 4 3 2 2 2 1 1 1 1 2 2 2 3 3 4 4 5 6 6 9 9 8 8 7 5 3 3 4 4 5 5 4 3 2 1 2 3 3 3 1 4 5 4 5 5 5 5 5 5 6
14 14 14 16 16 14 15 17 20 20 20 19 17 17 17 16 15 16 15 14 14 12 10 9 8 6 4 4 4 4 4 4 4 5 5 4 4 4 4 3 2 2 2 1 2 2 2 3 3 3 3 5 7 6 9 12 10 9 5 2 2 2 3 4 5 2 1 1 1 3 4 3 3 5 2 5 3 3 3 3 4 4 3 3 3
13 13 12 14 14 13 15 17 19 21 20 18 17 18 19 18 18 17 15 13 13 12 10 9 8 6 5 5 5 5 4 3 3 4 4 4 4 5 6 5 3 3 3 2 2 2 2 3 3 2 3 5 6 5 8 11 10 9 6 2 2 2 2 2 4 2 3 3 2 3 4 2 1 3 2 2 2 2 3 3 3 4 4 4 4
7 8 9 9 9 7 8 7 9 17 19 17 18 20 20 21 21 18 15 13 12 10 10 10 9 7 6 7 6 6 5 4 3 3 3 4 4 5 6 6 6 5 5 4 2 2 2 2 2 3 3 4 4 5 7 7 7 9 8 5 2 1 1 3 3 2 5 6 5 4 5 5 3 2 2 1 1 2 3 3 3 3 4 4 4
7 9 11 11 11 11 12 8 7 13 16 18 20 21 21 21 19 16 14 13 12 11 10 10 9 8 8 8 7 7 6 4 3 3 2 3 5 6 6 6 7 8 8 6 4 3 2 2 2 3 3 4 4 5 6 6 6 5 5 5 3 1 1 2 2 3 4 6 9 9 10 8 6 5 5 3 2 1 1 2 2 1 2 4 4
12 13 13 13 14 17 18 16 16 17 14 16 20 21 21 19 16 14 13 12 12 11 11 10 9 9 9 8 8 6 4 3 4 3 2 3 5 5 5 5 7 8 8 7 6 5 3 2 2 2 2 3 4 4 5 6 6 4 3 3 2 2 2 1 2 1 3 4 5 8 12 14 14 13 11 9 6 4 3 3 2 1 2 4 4
16 15 15 15 17 18 18 21 23 21 16 17 21 21 20 18 15 14 14 13 11 11 11 10 10 9 8 8 7 5 4 4 4 4 3 4 4 5 5 4 5 6 7 7 7 6 5 3 2 2 2 2 2 2 5 6 6 6 5 3 3 3 4 2 1 1 3 5 4 4 7 13 16 17 17 15 13 11 9 8 6 6 6 6 5
16 18 17 18 17 16 18 22 23 21 19 20 21 20 19 17 14 14 15 14 13 13 12 12 11 10 8 7 6 6 6 6 6 5 4 5 4 4 4 3 4 5 6 6 7 6 6 5 5 4 3 3 2 2 4 5 6 6 6 5 6 6 5 4 3 3 4 5 5 5 6 9 12 14 16 16 16 17 17 16 15 14 13 11 11
17 18 17 18 17 18 21 24 23 21 21 21 21 20 19 17 14 13 14 14 14 15 15 14 13 10 8 7 7 7 7 7 7 6 5 5 4 3 3 3 4 5 5 6 6 6 7 8 9 8 7 6 5 4 4 4 4 5 6 6 7 6 5 4 5 5 5 7 8 7 8 11 12 12 13 14 15 17 18 20 20 19 19 18 17
Wind_Direction
162 158 160 164 159 156 152 147 143 139 141 139 139 138 140 140 144 147 147 145 143 144 142 140 138 140 141 142 142 140 137 133 133 131 126 121 119 118 119 121 124 126 124 123 124 122 119 116 114 114 113 112 112 112 116 115 113 112 114 119 115 110 109 110 108 105 102 103 103 100 98 98 96 94 94 97 95 93 96 88 77 72 69 65 65
159 159 160 165 159 155 153 148 144 141 143 141 139 139 141 139 141 144 145 143 141 141 140 140 140 141 142 143 142 138 134 131 131 128 125 122 119 117 118 121 124 126 125 126 126 125 123 121 119 118 117 116 115 115 117 117 116 115 118 125 122 117 117 116 112 107 103 105 106 101 98 97 94 92 92 93 92 95 93 83 76 74 69 63 65
153 158 157 163 159 156 155 149 145 144 144 141 139 140 142 140 139 142 144 143 140 142 142 142 142 143 142 141 140 136 133 130 130 127 126 123 120 118 118 120 122 124 125 126 126 128 127 126 127 124 122 120 119 118 120 121 119 123 123 123 126 124 121 119 115 110 107 107 106 101 98 96 94 92 90 88 88 89 85 79 76 75 72 67 69
151 155 154 161 160 159 156 151 148 146 144 141 141 141 143 144 142 142 145 146 144 146 146 146 145 144 142 140 139 136 134 131 129 125 123 121 119 117 116 118 118 120 124 126 126 128 128 128 130 128 127 124 123 124 126 125 123 130 125 115 123 124 122 123 119 116 115 116 109 101 97 95 93 90 89 87 84 85 83 81 79 77 74 70 71
150 153 154 159 160 161 156 153 151 146 145 143 142 142 142 144 146 146 147 149 148 147 146 146 144 143 141 141 139 136 134 131 127 120 115 115 117 118 119 120 117 118 122 123 124 127 126 126 128 129 130 128 127 128 127 126 128 131 123 114 119 118 121 124 119 118 119 118 107 98 98 96 95 93 92 90 87 85 82 80 77 77 73 68 71
150 152 153 156 158 160 156 155 152 146 145 143 142 141 141 142 145 148 149 149 147 145 143 142 141 141 141 140 138 135 133 130 126 119 114 113 117 122 124 124 122 121 119 118 124 127 126 128 130 132 130 130 133 133 129 128 131 129 121 116 113 112 117 119 115 115 115 111 101 96 98 98 97 96 94 93 91 88 84 81 76 75 73 68 71
149 151 152 154 156 159 159 158 153 148 145 144 143 141 140 140 141 144 146 146 145 143 143 142 140 139 138 137 136 134 133 131 129 126 121 118 119 123 124 123 124 124 123 120 124 129 129 130 131 133 132 132 139 139 133 129 129 125 117 112 109 110 113 115 113 112 110 103 95 96 97 98 96 96 97 94 93 91 87 83 79 76 74 71 73
148 151 152 152 155 160 161 158 153 149 146 144 143 141 141 139 140 142 143 144 144 145 145 142 138 137 136 136 136 136 136 134 133 130 125 124 122 122 121 120 124 129 134 130 125 126 127 128 129 132 133 135 143 141 135 133 131 122 112 108 108 107 108 112 114 110 104 97 96 97 96 97 97 98 99 96 95 94 89 83 79 76 75 73 73
148 151 151 150 156 159 158 156 152 148 145 145 143 143 142 141 141 142 144 145 146 145 143 138 136 136 136 136 136 137 134 132 133 132 129 126 125 125 124 120 123 129 132 129 122 121 123 128 130 133 135 136 145 144 138 137 133 124 116 109 105 102 101 108 114 110 99 94 97 94 97 98 96 99 100 99 99 97 93 86 81 76 76 73 72
148 150 149 149 157 159 157 155 152 149 146 145 144 144 144 144 143 143 144 144 145 143 139 137 138 138 137 137 136 133 130 131 133 134 132 129 128 131 130 122 120 123 123 121 118 119 122 129 134 137 137 140 148 149 146 143 138 133 130 120 108 104 102 104 110 109 99 95 94 97 108 104 96 101 104 101 100 98 92 90 90 83 80 74 71
146 148 146 148 158 159 156 155 151 149 147 146 145 145 145 144 143 143 142 141 141 140 140 140 141 140 140 140 139 136 134 135 136 137 135 133 135 136 134 124 119 123 123 117 116 120 123 130 140 142 142 147 150 152 155 155 154 145 138 130 121 113 111 106 106 110 103 98 97 103 111 102 96 104 107 103 102 98 94 94 93 84 81 79 76
144 144 146 149 157 158 156 154 150 148 148 148 146 146 146 144 143 143 142 142 142 143 144 144 144 143 144 144 144 141 139 139 139 140 138 141 142 138 136 127 123 126 124 116 113 120 127 135 143 146 148 153 152 156 160 161 162 151 141 134 131 125 124 112 108 119 110 101 102 105 105 99 101 107 108 105 103 99 100 100 94 87 83 81 78
143 144 148 149 155 157 156 155 152 150 149 148 148 148 147 145 144 143 144 145 146 147 147 146 146 146 147 148 148 145 143 143 142 142 143 146 144 139 139 131 126 128 125 120 114 120 132 142 147 149 152 156 159 167 169 164 158 147 146 141 137 139 140 129 123 131 120 109 107 108 106 103 108 112 108 106 105 102 103 98 95 95 91 85 76
144 146 148 150 154 156 157 157 155 152 149 148 149 149 148 146 144 143 145 147 149 150 149 149 148 149 150 151 150 148 146 145 143 143 145 147 144 141 139 133 131 129 126 123 118 122 134 145 149 151 157 164 168 173 174 173 162 145 147 139 135 145 152 151 142 141 132 120 114 112 108 107 118 118 113 110 110 108 103 98 99 99 95 92 82
144 147 150 151 153 154 156 159 157 154 152 152 153 153 152 149 145 144 145 149 153 152 152 151 150 151 151 153 152 148 146 146 144 144 146 147 145 142 138 136 135 130 128 126 123 128 136 147 152 154 161 170 173 175 176 177 165 144 138 128 131 152 159 160 152 145 139 129 123 118 111 115 123 119 116 116 116 111 106 105 105 102 98 94 85
146 148 150 150 150 151 154 159 159 155 154 155 156 156 156 152 148 146 146 151 155 153 152 150 151 150 151 152 150 147 147 146 145 146 147 147 145 143 141 139 135 131 130 129 129 133 138 150 160 162 163 166 169 170 169 161 147 133 129 123 135 156 159 158 153 146 143 136 131 121 114 121 124 121 122 121 121 118 114 110 106 105 100 98 91
148 147 147 148 149 149 151 156 158 156 156 157 157 156 156 153 148 147 149 153 154 151 150 149 149 148 149 148 147 149 147 146 145 148 148 149 151 149 148 141 137 138 134 132 130 129 130 140 156 165 168 165 162 160 159 151 138 130 134 136 149 162 158 155 151 145 143 139 134 124 117 127 130 130 129 124 124 121 118 114 109 107 100 100 96
148 147 148 149 149 150 150 154 159 159 158 158 157 157 156 152 149 149 150 152 152 148 146 145 144 144 146 146 148 148 146 146 145 147 147 149 151 152 152 143 141 143 135 133 130 125 121 122 133 150 163 164 160 159 156 150 137 130 139 152 163 170 162 153 149 145 143 138 134 126 125 135 134 133 131 126 126 125 123 120 111 106 103 100 97
148 148 149 150 150 150 149 155 162 162 160 159 158 158 155 150 150 151 150 150 148 143 141 140 141 142 144 146 146 145 144 146 145 145 143 139 138 142 148 142 139 137 130 131 131 127 121 117 120 129 145 154 157 157 153 146 134 128 138 158 170 175 170 158 153 147 140 140 136 131 134 135 134 134 134 130 127 128 127 122 112 108 108 102 98
149 148 149 149 150 149 150 156 162 163 164 162 157 156 153 150 151 151 150 147 141 138 138 139 141 143 146 146 144 141 140 143 144 145 142 137 131 129 138 140 135 128 124 128 134 133 125 117 116 119 127 138 147 150 148 143 131 126 139 163 176 176 177 170 161 150 142 142 134 137 140 134 133 137 137 133 130 130 129 126 121 116 114 107 104
146 147 148 144 144 148 150 155 160 162 163 162 156 153 153 152 153 151 147 141 137 137 138 140 144 147 151 150 146 144 145 148 148 149 148 143 139 133 133 136 132 124 118 126 138 142 134 122 115 116 118 125 136 142 142 139 130 122 139 169 182 177 179 176 164 152 145 145 138 144 144 135 135 140 139 137 137 135 132 131 127 123 121 115 114
139 140 141 141 141 145 148 153 159 160 159 161 158 156 155 154 153 150 143 139 139 139 140 145 150 153 156 155 154 155 156 156 155 157 155 151 152 143 135 132 126 122 120 125 139 148 145 133 125 123 122 123 129 135 135 132 131 123 132 164 181 177 176 174 166 155 149 148 152 156 143 136 137 142 144 141 141 137 132 132 129 130 130 122 120
141 138 136 139 140 144 150 156 161 160 159 158 156 157 158 154 152 148 143 143 144 145 149 155 159 160 162 163 163 167 167 163 162 161 159 159 158 150 138 126 122 129 136 137 140 147 151 148 143 138 133 127 122 129 131 125 129 127 128 147 170 175 173 173 170 167 167 165 172 173 147 139 138 146 152 146 146 140 134 133 134 138 135 126 118
147 143 136 136 143 153 162 164 162 160 159 156 157 161 161 157 153 152 149 148 153 159 162 165 170 168 168 169 169 175 175 169 166 164 165 165 160 152 134 119 134 154 157 152 146 146 150 155 157 150 144 134 120 122 123 120 127 131 133 140 157 169 171 173 178 182 188 199 217 209 161 147 140 150 160 154 154 145 141 141 142 148 144 132 124
150 145 137 143 158 167 171 166 161 162 160 158 162 167 165 161 157 156 155 153 160 167 169 171 173 171 170 171 173 178 181 176 171 173 174 168 162 148 125 135 173 177 164 162 163 159 162 165 163 158 151 142 128 126 128 121 120 133 142 144 153 166 172 176 178 184 197 218 244 245 188 162 147 154 167 162 161 149 147 149 149 157 158 147 137
147 144 147 160 170 173 172 164 160 160 158 161 167 170 168 163 161 159 157 158 164 171 173 173 174 175 174 174 177 181 187 185 180 183 179 167 160 144 144 179 194 183 166 171 180 177 177 178 170 167 165 155 143 138 147 140 121 133 150 148 150 163 174 180 179 180 197 220 249 257 216 187 158 157 171 170 166 157 154 153 155 160 156 149 143
141 146 158 167 171 174 165 151 153 157 160 169 172 172 170 164 162 161 162 164 171 176 176 176 178 181 182 184 186 188 191 193 193 195 184 163 155 160 187 200 194 184 180 178 181 181 177 178 174 174 181 180 182 171 164 160 141 139 156 158 154 158 168 179 183 183 196 216 247 260 238 209 173 158 171 179 177 167 161 158 160 159 150 149 149
138 147 166 174 171 168 156 152 166 167 164 171 172 173 172 166 163 165 169 171 177 183 181 181 184 187 192 195 198 202 203 205 205 200 186 162 163 185 205 204 192 185 187 184 180 179 170 169 172 172 185 192 203 191 172 174 161 149 164 169 162 161 165 172 180 184 195 212 238 260 256 229 188 162 172 183 185 178 168 164 163 160 155 155 155
142 151 175 185 179 170 163 168 182 183 170 170 176 176 173 168 167 171 174 177 183 187 186 188 190 191 198 204 211 217 220 221 215 204 188 168 177 200 204 200 198 190 186 185 181 179 172 168 164 159 181 196 198 188 175 171 168 161 169 177 175 173 171 170 173 180 191 203 225 256 260 243 203 173 173 176 183 185 177 174 172 169 168 166 165
149 162 184 190 184 179 172 172 183 188 175 173 181 179 175 171 174 176 175 182 187 187 190 193 193 194 200 207 215 222 231 231 228 221 195 177 185 202 202 198 202 195 189 186 179 179 177 170 166 172 194 201 195 186 177 170 167 167 171 182 185 178 177 177 175 179 188 198 218 246 259 253 218 186 172 168 174 185 184 182 181 181 177 173 175
163 177 193 192 184 183 179 178 186 189 176 175 181 180 179 177 180 179 179 188 190 190 195 198 200 200 202 211 218 224 233 239 237 226 202 188 186 193 199 201 204 199 194 187 181 183 178 173 177 188 200 197 191 194 193 186 175 178 178 184 185 177 182 184 180 181 190 204 216 235 255 260 237 198 182 166 166 178 186 186 188 189 187 183 185
181 189 196 191 186 187 186 186 189 187 179 178 182 182 180 181 184 179 181 189 189 195 201 207 214 215 219 228 232 232 235 239 235 223 202 188 187 192 196 198 204 203 198 190 186 186 178 178 186 193 205 191 191 207 215 212 199 195 192 193 190 182 182 183 182 184 192 211 219 225 245 257 254 222 198 172 167 180 186 184 191 193 193 194 195
189 196 197 191 189 190 191 192 192 191 188 186 188 188 181 178 182 179 184 189 188 199 207 215 223 228 238 242 239 236 233 230 227 225 206 189 193 198 199 196 198 203 200 189 185 188 182 184 190 195 217 199 194 211 224 223 220 213 205 207 204 200 190 184 187 193 201 218 227 233 245 250 257 246 220 203 181 191 191 172 182 191 199 205 205
191 197 197 192 189 192 195 195 194 195 194 193 192 191 183 174 178 182 190 191 188 195 206 216 222 234 250 244 229 220 220 224 228 231 212 197 203 201 198 192 191 196 195 188 186 189 187 193 202 201 220 212 207 219 227 231 239 232 218 215 215 219 216 201 200 202 212 227 234 240 245 246 252 248 235 228 209 207 204 184 172 182 194 203 203
189 189 190 188 188 195 198 194 191 193 193 193 192 193 189 181 185 191 191 185 182 185 190 198 204 226 243 235 217 200 218 226 226 228 212 203 205 203 196 184 188 192 190 191 190 191 192 201 216 218 233 228 220 223 226 229 237 239 223 212 217 230 230 225 221 215 220 229 237 243 244 250 258 258 243 226 228 227 219 209 206 203 188 193 197
183 183 181 180 186 193 195 190 188 190 188 187 191 196 194 189 189 186 177 167 169 174 171 170 182 204 226 234 209 194 221 233 228 226 219 210 205 212 214 199 205 208 209 207 196 197 201 206 233 245 260 246 228 223 220 220 224 226 211 199 210 227 229 230 229 231 236 230 231 240 244 248 254 260 253 232 231 243 241 222 218 229 201 186 186
179 180 176 176 183 188 190 187 186 184 181 183 191 195 189 185 178 164 154 154 161 160 154 152 153 165 165 186 197 206 228 242 248 242 222 210 209 221 228 226 228 223 223 223 213 211 208 213 239 251 241 229 222 220 217 210 205 203 200 198 201 215 225 225 219 220 229 231 231 235 240 244 248 255 258 251 241 245 261 252 239 248 240 226 176
178 178 178 182 183 184 187 185 183 179 180 185 190 190 184 175 159 150 155 156 156 147 139 137 131 133 135 133 135 176 214 220 233 223 194 201 218 226 227 236 243 238 230 221 216 215 213 215 216 227 230 224 222 221 214 198 182 176 186 199 196 203 227 231 221 218 225 233 234 238 243 247 252 255 256 256 251 247 256 269 266 264 273 270 257
180 180 183 188 186 185 184 182 182 178 181 186 187 186 177 164 152 152 157 152 147 139 133 130 126 123 122 122 114 119 145 136 136 169 173 187 213 221 218 226 238 242 243 234 214 204 210 215 208 224 230 223 214 202 190 181 167 159 170 189 190 192 222 239 243 245 243 243 238 242 249 251 258 263 262 257 255 259 251 260 284 274 278 275 260
183 185 188 191 189 187 182 178 181 179 182 185 185 182 166 155 156 156 153 147 141 135 131 127 120 115 112 107 101 102 101 95 106 121 148 188 196 199 197 207 222 227 232 236 223 209 211 212 210 224 228 201 187 187 187 183 168 153 150 162 175 179 199 213 207 241 246 257 250 249 252 255 263 268 271 259 251 258 261 264 280 286 291 292 284
189 190 192 196 193 190 181 174 179 183 188 186 182 176 164 162 163 159 152 145 140 135 130 123 114 108 103 96 89 91 92 94 94 90 90 119 189 191 191 203 215 213 208 188 179 196 201 206 207 210 202 181 176 186 189 175 162 160 145 144 171 182 184 181 166 128 70 305 306 300 259 258 265 263 278 270 257 273 291 272 259 271 293 295 293
196 195 198 200 197 192 183 177 182 188 192 188 183 178 174 172 168 161 153 145 141 138 130 123 116 110 102 92 79 75 84 95 91 84 82 75 81 156 246 247 218 179 166 145 143 133 156 186 196 194 187 182 187 189 180 168 162 168 168 165 189 209 206 209 232 254 271 270 273 284 289 304 286 267 89 346 343 335 314 289 257 255 280 284 285
196 199 201 201 198 190 183 182 185 189 192 190 186 182 178 175 167 158 152 145 143 140 133 127 120 114 107 91 75 71 75 87 89 78 70 59 47 22 359 340 350 85 106 117 143 140 144 162 180 194 185 181 197 194 179 177 170 161 168 186 197 218 225 220 231 252 265 261 261 255 79 60 36 35 327 295 326 333 304 281 247 255 278 288 286
191 197 199 198 196 192 191 189 188 190 190 187 186 184 177 171 162 154 149 143 141 141 134 129 125 120 114 94 89 92 76 78 86 73 61 48 35 26 21 23 32 56 72 87 135 152 162 154 164 182 172 179 194 194 190 196 190 172 169 178 171 214 233 196 188 209 302 349 22 62 86 94 50 40 359 282 302 352 313 260 249 284 315 325 311
188 194 195 195 194 193 196 192 190 191 188 183 186 185 175 164 155 148 144 137 136 142 139 135 136 131 121 107 102 98 81 77 81 66 53 41 36 32 32 43 58 64 75 78 110 154 166 163 177 183 175 192 194 187 198 210 212 203 196 154 136 224 247 174 174 149 67 41 8 50 76 94 58 37 20 291 292 347 341 295 278 305 319 317 318
167 173 171 175 172 172 188 183 182 188 185 187 191 186 174 163 154 148 145 141 139 146 148 146 145 136 123 115 109 99 84 81 80 62 48 36 37 40 40 49 60 64 71 71 81 130 143 159 194 201 195 209 203 179 187 209 220 218 217 216 225 273 204 167 188 159 87 55 33 48 53 47 48 52 68 61 329 322 350 353 340 324 318 326 335
122 132 143 157 165 177 190 187 196 199 192 195 194 183 173 166 159 153 150 150 148 151 155 150 144 136 125 120 115 104 89 85 92 82 56 41 43 47 45 53 64 64 65 66 66 75 100 152 177 194 206 217 216 190 177 186 201 209 218 222 232 297 192 183 207 182 127 63 51 61 60 56 60 60 61 66 92 141 24 33 44 11 2 21 27
130 140 149 167 184 191 192 185 194 207 201 194 191 183 177 172 164 154 149 150 150 152 154 147 141 136 129 126 121 107 95 97 106 101 80 62 55 48 42 54 68 63 60 63 63 64 74 129 145 156 197 208 217 205 181 181 191 195 200 204 205 203 186 236 299 241 149 110 77 69 68 70 70 68 68 69 74 87 71 64 80 53 40 54 55
143 161 176 189 192 191 190 183 185 196 197 192 191 189 186 179 167 155 149 150 150 150 153 148 142 139 132 130 123 106 104 111 109 105 90 72 60 45 39 55 64 55 53 55 54 55 62 83 112 126 155 186 213 209 187 188 193 193 192 174 130 139 139 129 279 90 119 139 133 102 88 79 70 67 71 73 72 75 78 79 80 78 85 96 99
163 182 189 190 185 182 190 186 181 188 194 193 194 194 192 184 171 159 152 153 155 154 153 150 145 143 139 134 124 113 111 113 107 102 91 74 61 43 37 48 49 49 53 52 49 50 61 76 86 98 113 132 155 165 166 174 184 189 193 171 133 128 138 145 153 132 123 138 132 126 117 95 79 68 67 70 71 73 77 82 83 79 83 91 93
178 184 180 179 181 186 189 182 177 183 190 193 197 198 195 189 177 164 158 157 160 159 156 155 152 149 147 142 131 121 118 117 112 105 95 76 57 42 42 50 53 55 52 48 52 60 71 79 82 87 92 93 99 119 138 140 147 163 177 173 154 156 168 151 146 151 146 139 132 128 116 102 96 84 72 69 72 72 73 77 78 78 80 83 87